Location: Slave Lake
(55.2830°N, 114.7830°W)
Time: 02:01:18
(UTC-06:00)

Amateur Radio Satellites - All Passes

Search period start: 01 May 2016 01:31
Search period end: 02 May 2016 01:31
Location: Slave Lake, 55.2830°N, 114.7830°W

Satellite Date Start Highest point End Downlink Frequencies (MHz)
Time Altitude Azimuth
VELOX 1 01 May 01:37:12 01:40:18 18° 271° (W) 01:43:27 145.980
DX 1 01 May 01:41:45 01:44:43 18° 271° (W) 01:47:42 434.975-435.025
ANTELSAT 01 May 01:44:44 01:48:16 24° 302° (WNW) 01:51:44 437.575/2403.000
UKube-1 01 May 01:52:26 01:55:13 17° 272° (W) 01:58:01 .
ITUPSAT 1 01 May 01:57:20 02:01:44 39° 62° (ENE) 02:06:10 437.325
QB50P2 01 May 02:05:03 02:09:10 47° 293° (WNW) 02:13:14 145.880/145.840
POLYITAN 1 01 May 02:07:12 02:11:18 46° 293° (WNW) 02:15:21 437.675
SWISSCUBE 01 May 02:07:42 02:12:17 50° 66° (ENE) 02:16:54 437.505
DUCHIFAT 1 01 May 02:07:42 02:11:50 50° 292° (WNW) 02:15:55 145.980
KKS-1 01 May 02:09:19 02:11:02 12° 47° (NE) 02:12:43 437.445
POPSAT HIP 1 01 May 02:10:24 02:14:29 45° 294° (WNW) 02:18:31 437.405
AIST 2 01 May 02:11:33 02:14:53 23° 352° (N) 02:18:13 435.215
QB50P1 01 May 02:13:53 02:17:55 41° 294° (WNW) 02:21:54 145.935-145.965
Cosmos 2499 01 May 02:21:53 02:28:46 59° 93° (E) 02:35:46 435.465 / 435.565
SPROUT 01 May 02:26:40 02:29:13 15° 273° (W) 02:31:47 437.525
Gurwin Techsat 1B 01 May 02:28:55 02:32:02 15° 84° (E) 02:35:08 435.225
STARS 01 May 02:32:12 02:33:29 11° 46° (NE) 02:34:45 437.465
O/OREOS (USA 219) 01 May 02:32:14 02:36:06 28° 254° (WSW) 02:39:55 437.305
BEESAT 3 01 May 02:33:21 02:37:05 37° 29° (NNE) 02:40:48 437.485
BEESAT 2 01 May 02:36:29 02:40:07 31° 24° (NNE) 02:43:44 435.950
CUSAT 1 01 May 02:37:24 02:43:51 65° 71° (ENE) 02:51:35 437.405
UNISAT 6 01 May 02:40:55 02:41:55 11° 314° (NW) 02:42:54 437.425
BEESAT 01 May 02:40:58 02:45:44 83° 72° (ENE) 02:50:32 436.000
GONETS M04 01 May 02:45:22 02:54:13 72° 286° (WNW) 03:03:05
NANOSAT C BR1 01 May 02:50:23 02:53:46 23° 302° (WNW) 02:57:06 145.865
Oscar 19 01 May 02:50:24 02:55:22 43° 97° (E) 03:00:19 437.125/150
PCSat 01 May 02:55:28 02:59:52 25° 248° (WSW) 03:04:15 145.827
BUGSAT 1 01 May 02:58:45 03:02:34 33° 297° (WNW) 03:06:20 437.445
DANDE 01 May 03:01:00 03:06:32 52° 70° (ENE) 03:13:37 436.750
AIST 1 01 May 03:01:03 03:04:54 31° 294° (WNW) 03:08:49
TISAT 1 01 May 03:08:17 03:10:57 16° 272° (W) 03:13:40 437.305
YUBILEINY 01 May 03:09:18 03:12:16 12° 20° (NNE) 03:15:15 435.215
JAS-2 01 May 03:11:46 03:19:25 85° 107° (ESE) 03:27:20 435.910
AO-7 01 May 03:16:26 03:18:04 11° 74° (ENE) 03:19:41 29.400- 29.500
MOZHAYETS 4 01 May 03:31:00 03:34:59 30° 61° (ENE) 03:38:58
RS-15 01 May 03:31:05 03:42:41 55° 356° (N) 03:54:45 29.354- 29.394
ITUPSAT 1 01 May 03:35:09 03:39:37 39° 263° (W) 03:44:06 437.325
KKS-1 01 May 03:42:19 03:46:41 53° 67° (ENE) 03:51:05 437.445
QB50P2 01 May 03:43:43 03:44:01 10° 314° (NW) 03:44:19 145.880/145.840
DUCHIFAT 1 01 May 03:45:47 03:46:37 11° 313° (NW) 03:47:28 145.980
SWISSCUBE 01 May 03:46:10 03:50:19 29° 266° (W) 03:54:30 437.505
AIST 2 01 May 03:50:59 03:54:32 26° 16° (NNE) 03:58:03 435.215
ITAMSAT 1 01 May 04:04:27 04:09:15 37° 96° (E) 04:14:02 435.822/435.867
STARS 01 May 04:04:36 04:08:53 49° 66° (ENE) 04:13:12 437.465
Gurwin Techsat 1B 01 May 04:07:34 04:12:56 76° 105° (ESE) 04:18:15 435.225
BEESAT 3 01 May 04:11:05 04:14:58 54° 230° (SW) 04:18:50 437.485
BEESAT 2 01 May 04:14:19 04:18:20 75° 226° (SW) 04:22:19 435.950
Cosmos 2499 01 May 04:15:48 04:22:18 38° 298° (WNW) 04:28:57 435.465 / 435.565
CUSAT 1 01 May 04:19:51 04:25:51 38° 269° (W) 04:32:49 437.405
BEESAT 01 May 04:20:55 04:24:10 18° 272° (W) 04:27:25 436.000
Oscar 19 01 May 04:29:52 04:34:43 40° 298° (WNW) 04:39:33 437.125/150
DANDE 01 May 04:43:57 04:49:23 42° 266° (W) 04:56:12 436.750
GONETS M04 01 May 04:45:57 04:52:54 25° 313° (NW) 04:59:53
JAS-2 01 May 04:57:19 05:03:49 34° 307° (NW) 05:10:35 435.910
AO-7 01 May 05:05:26 05:13:20 44° 98° (E) 05:21:13 29.400- 29.500
YUBILEINY 01 May 05:05:45 05:13:05 29° 52° (NE) 05:20:23 435.215
MOZHAYETS 4 01 May 05:07:36 05:12:01 48° 261° (W) 05:16:28
CUBESAT XI-V 01 May 05:10:20 05:14:31 35° 62° (ENE) 05:18:43 437.345
KKS-1 01 May 05:19:47 05:23:33 26° 267° (W) 05:27:20 437.445
AIST 2 01 May 05:29:31 05:33:41 67° 38° (NE) 05:37:49 435.215
STARS 01 May 05:41:40 05:45:29 27° 266° (W) 05:49:19 437.465
STRAND 1 01 May 05:42:29 05:45:21 15° 46° (NE) 05:48:13 437.568
ITAMSAT 1 01 May 05:43:56 05:48:53 46° 296° (WNW) 05:53:48 435.822/435.867
RS-15 01 May 05:45:16 05:57:21 68° 28° (NNE) 06:09:42 29.354- 29.394
Gurwin Techsat 1B 01 May 05:48:09 05:52:26 26° 306° (NW) 05:56:43 435.225
BEESAT 2 01 May 05:53:27 05:55:33 14° 246° (WSW) 05:57:38 435.950
Cosmos 2504 01 May 05:59:01 06:03:39 17° 44° (NE) 06:08:25 435.465 / 435.565
Cosmos 2491 01 May 06:01:44 06:07:13 19° 69° (ENE) 06:12:43 435.465 / 435.565
NOAA 15 01 May 06:08:58 06:11:04 12° 82° (E) 06:13:09 137.62
Oscar 19 01 May 06:11:17 06:12:48 11° 320° (NW) 06:14:19 437.125/150
Cosmos 2499 01 May 06:15:26 06:18:05 12° 326° (NNW) 06:20:46 435.465 / 435.565
HORYU 2 01 May 06:29:49 06:34:15 61° 103° (ESE) 06:38:37 437.375
JAS-2 01 May 06:43:33 06:46:50 14° 331° (NNW) 06:50:13 435.910
CUBESAT XI-V 01 May 06:47:30 06:51:52 41° 263° (W) 06:56:17 437.345
GONETS M04 01 May 06:51:49 06:54:09 11° 346° (NNW) 06:56:29
NOAA 18 01 May 06:55:08 06:59:32 24° 91° (E) 07:03:54 137.9125
AO-7 01 May 06:58:20 07:06:31 63° 301° (WNW) 07:14:42 29.400- 29.500
CUTE-I 01 May 06:58:37 07:02:36 21° 88° (E) 07:06:34 437.470
YUBILEINY 01 May 07:02:33 07:11:20 85° 79° (E) 07:20:04 435.215
AIST 2 01 May 07:08:26 07:11:53 26° 240° (WSW) 07:15:20 435.215
STRAND 1 01 May 07:18:37 07:23:38 60° 67° (ENE) 07:28:40 437.568
GOMX 1 01 May 07:19:34 07:23:32 20° 85° (E) 07:27:26 467.674
ITAMSAT 1 01 May 07:25:06 07:27:13 13° 318° (NW) 07:29:21 435.822/435.867
PRISM 01 May 07:26:13 07:29:07 19° 56° (NE) 07:32:02 437.425
DOVE 4 01 May 07:26:33 07:28:29 12° 79° (E) 07:30:23 437.250
LilacSat-2 01 May 07:28:56 07:32:17 28° 94° (E) 07:35:36 437.200
BRITE-PL 01 May 07:35:25 07:40:49 43° 96° (E) 07:46:12 437.365/2234.400
Cubesat XI-IV 01 May 07:41:52 07:46:55 41° 97° (E) 07:51:56 437.490
NOAA 15 01 May 07:46:40 07:51:58 61° 102° (ESE) 07:57:15 137.62
Cosmos 2504 01 May 07:51:43 07:58:58 55° 70° (ENE) 08:06:40 435.465 / 435.565
Cosmos 2491 01 May 07:53:38 08:02:18 64° 93° (E) 08:11:01 435.465 / 435.565
RS-15 01 May 07:58:12 08:10:10 65° 237° (WSW) 08:22:16 29.354- 29.394
HORYU 2 01 May 08:06:56 08:10:30 24° 303° (WNW) 08:14:03 437.375
SO-50 01 May 08:23:08 08:27:02 24° 117° (ESE) 08:30:54 436.795
CINEMA 3 01 May 08:23:36 08:25:23 12° 81° (E) 08:27:09 145.822/145.860
NOAA 18 01 May 08:35:18 08:40:46 74° 291° (WNW) 08:46:13 137.9125
CUTE-I 01 May 08:37:58 08:43:19 82° 290° (WNW) 08:48:38 437.470
M-CUBED/EXP-1 PRIME 01 May 08:44:32 08:48:31 40° 104° (ESE) 08:52:09 437.505
CANX-2 01 May 08:50:59 08:54:03 19° 89° (E) 08:57:06 2200.000
AO-7 01 May 08:51:34 08:57:57 26° 326° (NW) 09:04:21 29.400- 29.500
GONETS M04 01 May 08:53:06 08:56:32 12° 21° (NNE) 08:59:57
GOMX 1 01 May 08:56:48 09:02:22 90° 315° (NW) 09:07:47 467.674
UNISAT 6 01 May 08:57:24 08:59:23 13° 48° (NE) 09:01:21 437.425
STRAND 1 01 May 08:58:52 09:03:11 27° 268° (W) 09:07:32 437.568
PRISM 01 May 08:59:56 09:04:01 73° 257° (WSW) 09:08:09 437.425
YUBILEINY 01 May 09:00:06 09:07:14 30° 282° (WNW) 09:14:22 435.215
AAUSAT CUBESAT 2 01 May 09:00:48 09:01:04 10° 83° (E) 09:01:21 437.432
DOVE 4 01 May 09:02:06 09:07:21 61° 101° (E) 09:12:20 437.250
LilacSat-2 01 May 09:03:08 09:06:41 36° 294° (WNW) 09:10:12 437.200
AUBIESAT-1 01 May 09:04:48 09:08:51 52° 107° (ESE) 09:12:34 437.475
BRITE-PL 01 May 09:13:57 09:19:20 46° 295° (WNW) 09:24:44 437.365/2234.400
TIGRISAT 01 May 09:14:35 09:17:22 16° 52° (NE) 09:20:06 435.000
Cubesat XI-IV 01 May 09:22:03 09:27:03 42° 298° (WNW) 09:32:03 437.490
CUBEBUG 2 01 May 09:22:28 09:24:46 14° 84° (E) 09:27:02 437.445
HO-68 01 May 09:22:56 09:29:37 40° 96° (E) 09:36:16 435.675
CUTE 1.7 + AOD 2 01 May 09:23:40 09:27:30 32° 95° (E) 09:31:18 437.475
NOAA 15 01 May 09:26:53 09:31:30 31° 303° (WNW) 09:36:06 137.62
ANTELSAT 01 May 09:37:37 09:41:14 23° 58° (ENE) 09:44:49 437.575/2403.000
Cosmos 2504 01 May 09:45:23 09:52:16 43° 272° (W) 09:59:33 435.465 / 435.565
Cosmos 2491 01 May 09:51:22 09:59:41 43° 298° (WNW) 10:08:04 435.465 / 435.565
ZACube-1 01 May 09:53:36 09:55:45 14° 85° (E) 09:57:54 437.345
SEEDS 01 May 09:54:04 09:58:08 46° 99° (E) 10:02:10 437.485
QB50P2 01 May 09:56:58 09:57:57 11° 47° (NE) 09:58:57 145.880/145.840
CINEMA 3 01 May 09:58:44 10:03:33 68° 102° (ESE) 10:08:06 145.822/145.860
POLYITAN 1 01 May 09:58:59 10:00:05 11° 47° (NE) 10:01:10 437.675
COMPASS 1 01 May 10:00:45 10:04:42 41° 98° (E) 10:08:38 437.405
POPSAT HIP 1 01 May 10:01:52 10:03:08 11° 48° (NE) 10:04:25 437.405
SO-50 01 May 10:02:06 10:07:03 86° 319° (NW) 10:11:58 436.795
QB50P1 01 May 10:04:55 10:06:30 12° 49° (NE) 10:08:05 145.935-145.965
JAS-2 01 May 10:09:18 10:10:43 11° 22° (NNE) 10:12:10 435.910
Cosmos 2499 01 May 10:10:51 10:13:45 12° 34° (NE) 10:16:41 435.465 / 435.565
RS-15 01 May 10:11:44 10:20:17 23° 262° (W) 10:28:53 29.354- 29.394
ISS 01 May 10:12:14 10:14:53 23° 155° (SSE) 10:17:32 145.825
NOAA 18 01 May 10:16:52 10:20:40 20° 313° (NW) 10:24:26 137.9125
CUTE-I 01 May 10:18:53 10:22:41 20° 310° (NW) 10:26:29 437.470
M-CUBED/EXP-1 PRIME 01 May 10:19:13 10:23:01 32° 306° (NW) 10:26:32 437.505
CANX-2 01 May 10:26:09 10:30:21 65° 289° (WNW) 10:34:31 2200.000
DELFI C3 01 May 10:26:48 10:29:18 16° 88° (E) 10:31:47 145.870
UNISAT 6 01 May 10:30:43 10:35:15 56° 69° (ENE) 10:39:44 437.425
AAUSAT CUBESAT 2 01 May 10:33:15 10:37:24 68° 103° (ESE) 10:41:31 437.432
GOMX 1 01 May 10:35:36 10:39:48 23° 307° (NW) 10:43:58 467.674
Oscar 11 01 May 10:38:04 10:42:04 36° 96° (E) 10:46:03 145.826/435.025
NANOSAT C BR1 01 May 10:38:51 10:41:57 20° 56° (NE) 10:45:03 145.865
PRISM 01 May 10:39:07 10:40:07 11° 275° (W) 10:41:09 437.425
AUBIESAT-1 01 May 10:39:38 10:43:07 26° 308° (NW) 10:46:22 437.475
DOVE 4 01 May 10:40:12 10:44:44 30° 302° (WNW) 10:49:07 437.250
AO-7 01 May 10:43:47 10:48:03 15° 353° (N) 10:52:20 29.400- 29.500
BUGSAT 1 01 May 10:46:53 10:49:04 14° 51° (NE) 10:51:15 437.445
FUNcube-1 01 May 10:47:15 10:51:13 36° 96° (E) 10:55:05 145.935
TIGRISAT 01 May 10:48:45 10:53:23 75° 72° (ENE) 10:57:58 435.000
GONETS M04 01 May 10:49:44 10:57:18 30° 53° (NE) 11:04:46
UWE-3 01 May 10:53:51 10:58:11 61° 101° (ESE) 11:02:22 435.000/436.395/437.385
BRITE-PL 01 May 10:53:59 10:56:35 13° 317° (NW) 10:59:11 437.365/2234.400
CUBEBUG 2 01 May 10:57:41 11:02:10 87° 108° (ESE) 11:06:27 437.445
CUTE 1.7 + AOD 2 01 May 10:59:31 11:03:25 37° 295° (WNW) 11:07:19 437.475
Cubesat XI-IV 01 May 11:03:57 11:05:55 12° 320° (NW) 11:07:52 437.490
HO-68 01 May 11:10:40 11:17:42 61° 298° (WNW) 11:24:42 435.675
HUMSAT D 01 May 11:11:09 11:14:18 21° 91° (E) 11:17:24 437.325/437.525
ANTELSAT 01 May 11:12:59 11:17:36 68° 257° (WSW) 11:22:11 437.575/2403.000
AIST 1 01 May 11:22:27 11:26:08 25° 64° (ENE) 11:29:48
ZACube-1 01 May 11:28:28 11:32:46 88° 94° (E) 11:36:58 437.345
QB50P2 01 May 11:28:42 11:32:51 50° 68° (ENE) 11:37:02 145.880/145.840
SEEDS 01 May 11:30:08 11:33:41 27° 299° (WNW) 11:37:13 437.485
DUCHIFAT 1 01 May 11:30:47 11:34:53 46° 67° (ENE) 11:38:59 145.980
POLYITAN 1 01 May 11:30:49 11:34:59 51° 68° (ENE) 11:39:10 437.675
POPSAT HIP 1 01 May 11:33:52 11:38:03 52° 68° (ENE) 11:42:15 437.405
CINEMA 3 01 May 11:36:28 11:40:16 24° 303° (WNW) 11:43:57 145.822/145.860
COMPASS 1 01 May 11:36:33 11:40:11 30° 297° (WNW) 11:43:49 437.405
QB50P1 01 May 11:37:15 11:41:27 57° 69° (ENE) 11:45:41 145.935-145.965
SO-50 01 May 11:43:36 11:48:07 34° 341° (NNW) 11:52:35 436.795
ISS 01 May 11:47:46 11:50:54 42° 174° (S) 11:54:01 145.825
JAS-2 01 May 11:48:17 11:53:24 26° 47° (NE) 11:59:01 435.910
Cosmos 2491 01 May 11:54:26 11:59:36 16° 327° (NNW) 12:04:47 435.465 / 435.565
DELFI C3 01 May 12:00:42 12:04:40 72° 288° (WNW) 12:08:39 145.870
Cosmos 2499 01 May 12:02:42 12:09:33 37° 62° (ENE) 12:16:50 435.465 / 435.565
CANX-2 01 May 12:03:38 12:05:28 13° 309° (NW) 12:07:17 2200.000
UNISAT 6 01 May 12:08:26 12:12:17 25° 268° (W) 12:16:05 437.425
AAUSAT CUBESAT 2 01 May 12:09:29 12:12:31 20° 302° (WNW) 12:15:33 437.432
50 SAT 01 May 12:12:31 12:14:38 15° 89° (E) 12:16:44 437.505
NANOSAT C BR1 01 May 12:12:59 12:17:16 74° 257° (WSW) 12:21:34 145.865
Oscar 11 01 May 12:14:17 12:18:13 35° 296° (WNW) 12:22:09 145.826/435.025
AISAT 01 May 12:14:26 12:17:25 17° 88° (E) 12:20:23 437.250
BUGSAT 1 01 May 12:19:30 12:23:43 70° 72° (ENE) 12:28:00 437.445
Gurwin Techsat 1B 01 May 12:20:27 12:22:50 13° 42° (NE) 12:25:13 435.225
FUNcube-1 01 May 12:23:37 12:27:28 33° 297° (WNW) 12:31:14 145.935
ESTCUBE 1 01 May 12:25:44 12:29:35 26° 93° (E) 12:33:25 437.505/2401.250
TIGRISAT 01 May 12:27:17 12:30:36 19° 271° (W) 12:33:52 435.000
UWE-3 01 May 12:30:54 12:34:19 23° 302° (WNW) 12:37:40 435.000/436.395/437.385
AO-7 01 May 12:32:44 12:37:49 18° 20° (NNE) 12:42:55 29.400- 29.500
CUBEBUG 2 01 May 12:35:15 12:38:13 18° 306° (NW) 12:41:08 437.445
Oscar 19 01 May 12:36:28 12:40:47 27° 56° (NE) 12:45:06 437.125/150
HUMSAT D 01 May 12:46:15 12:50:17 56° 291° (WNW) 12:54:16 437.325/437.525
GONETS M04 01 May 12:46:36 12:55:29 88° 81° (E) 13:04:13
ANTELSAT 01 May 12:53:32 12:55:11 12° 277° (W) 12:56:49 437.575/2403.000
CUBEBUG 1 01 May 12:55:12 12:59:19 35° 96° (E) 13:03:23 437.445
HO-68 01 May 12:59:07 13:04:13 22° 321° (NW) 13:09:18 435.675
AIST 1 01 May 12:59:43 13:04:02 52° 265° (W) 13:08:19
QB50P2 01 May 13:05:20 13:08:55 25° 267° (W) 13:12:31 145.880/145.840
ZACube-1 01 May 13:05:46 13:08:31 17° 306° (NW) 13:11:13 437.345
DUCHIFAT 1 01 May 13:07:08 13:10:47 27° 267° (W) 13:14:28 145.980
POLYITAN 1 01 May 13:07:30 13:11:04 25° 267° (W) 13:14:39 437.675
POPSAT HIP 1 01 May 13:10:36 13:14:08 24° 268° (W) 13:17:40 437.405
QB50P1 01 May 13:14:11 13:17:34 22° 269° (W) 13:20:59 145.935-145.965
VELOX 1 01 May 13:18:05 13:22:29 54° 101° (E) 13:26:53 145.980
DX 1 01 May 13:20:37 13:24:56 51° 101° (E) 13:29:13 434.975-435.025
ISS 01 May 13:24:00 13:27:01 35° 194° (SSW) 13:30:02 145.825
SO-50 01 May 13:25:34 13:29:47 28° 5° (N) 13:33:55 436.795
UKube-1 01 May 13:30:05 13:34:22 52° 101° (E) 13:38:36 .
JAS-2 01 May 13:31:21 13:37:31 83° 72° (ENE) 13:44:36 435.910
DELFI C3 01 May 13:37:05 13:38:54 13° 308° (NW) 13:40:42 145.870
AO-85 01 May 13:44:03 13:48:16 23° 116° (ESE) 13:52:27 145.980
50 SAT 01 May 13:45:14 13:48:53 69° 289° (WNW) 13:52:32 437.505
AISAT 01 May 13:49:58 13:54:29 80° 288° (WNW) 13:58:57 437.250
ITAMSAT 1 01 May 13:51:43 13:55:52 25° 54° (NE) 14:00:03 435.822/435.867
NANOSAT C BR1 01 May 13:52:14 13:53:48 12° 276° (W) 13:55:21 145.865
Cosmos 2499 01 May 13:55:47 14:03:12 67° 265° (W) 14:11:12 435.465 / 435.565
Gurwin Techsat 1B 01 May 13:56:35 14:01:39 47° 64° (ENE) 14:06:46 435.225
BUGSAT 1 01 May 13:56:36 13:59:35 18° 271° (W) 14:02:36 437.445
Cosmos 2491 01 May 14:01:01 14:01:44 10° 2° (N) 14:02:27 435.465 / 435.565
ESTCUBE 1 01 May 14:02:15 14:06:40 52° 293° (WNW) 14:11:04 437.505/2401.250
SPROUT 01 May 14:02:56 14:07:15 62° 102° (ESE) 14:11:30 437.525
Oscar 19 01 May 14:14:34 14:19:44 69° 256° (WSW) 14:24:58 437.125/150
AO-7 01 May 14:21:06 14:28:28 38° 46° (NE) 14:35:51 29.400- 29.500
HUMSAT D 01 May 14:23:59 14:25:05 11° 311° (NW) 14:26:11 437.325/437.525
CUBEBUG 1 01 May 14:31:31 14:35:39 38° 296° (WNW) 14:39:47 437.445
BEESAT 01 May 14:35:18 14:37:27 13° 84° (E) 14:39:37 436.000
TISAT 1 01 May 14:42:48 14:46:59 51° 100° (E) 14:51:07 437.305
GONETS M04 01 May 14:44:14 14:51:17 28° 283° (WNW) 14:58:17
HO-68 01 May 14:48:17 14:49:26 10° 347° (NNW) 14:50:35 435.675
VELOX 1 01 May 14:54:58 14:58:44 27° 301° (WNW) 15:02:30 145.980
DX 1 01 May 14:57:12 15:00:56 28° 301° (WNW) 15:04:40 434.975-435.025
ISS 01 May 15:01:02 15:02:51 14° 214° (SSW) 15:04:40 145.825
UKube-1 01 May 15:06:34 15:10:12 27° 301° (WNW) 15:13:51 .
SO-50 01 May 15:06:36 15:11:17 46° 28° (NNE) 15:15:50 436.795
O/OREOS (USA 219) 01 May 15:14:10 15:16:37 14° 99° (E) 15:19:04 437.305
JAS-2 01 May 15:18:30 15:23:33 25° 275° (W) 15:29:08 435.910
50 SAT 01 May 15:20:59 15:22:01 11° 308° (NW) 15:23:05 437.505
AO-85 01 May 15:22:47 15:28:16 86° 137° (SE) 15:33:35 145.980
AISAT 01 May 15:27:32 15:30:20 17° 308° (NW) 15:33:07 437.250
ITUPSAT 1 01 May 15:27:53 15:32:11 32° 95° (E) 15:36:28 437.325
ITAMSAT 1 01 May 15:29:44 15:34:55 75° 255° (WSW) 15:40:08 435.822/435.867
Gurwin Techsat 1B 01 May 15:36:53 15:41:46 37° 264° (W) 15:46:42 435.225
SWISSCUBE 01 May 15:38:01 15:42:35 42° 99° (E) 15:47:06 437.505
SPROUT 01 May 15:39:29 15:42:53 23° 302° (WNW) 15:46:16 437.525
ESTCUBE 1 01 May 15:40:57 15:42:33 12° 313° (NW) 15:44:09 437.505/2401.250
Cosmos 2499 01 May 15:50:21 15:55:01 18° 287° (WNW) 15:59:52 435.465 / 435.565
CUSAT 1 01 May 15:50:51 15:54:07 27° 86° (E) 15:58:13 437.405
Oscar 19 01 May 15:57:32 16:00:04 14° 277° (W) 16:02:38 437.125/150
Cosmos 2491 01 May 15:57:57 16:03:40 18° 37° (NE) 16:09:22 435.465 / 435.565
HORYU 2 01 May 15:59:20 16:02:58 25° 58° (ENE) 16:06:36 437.375
NOAA 15 01 May 15:59:48 16:01:25 11° 39° (NE) 16:03:03 137.62
PCSat 01 May 16:02:59 16:05:53 15° 105° (ESE) 16:08:47 145.827
BEESAT 01 May 16:11:21 16:16:09 72° 105° (ESE) 16:20:54 436.000
AO-7 01 May 16:12:22 16:20:40 81° 249° (WSW) 16:29:03 29.400- 29.500
TISAT 1 01 May 16:18:54 16:22:26 26° 300° (WNW) 16:25:56 437.305
DANDE 01 May 16:21:20 16:23:37 18° 84° (E) 16:26:18 436.750
HO-68 01 May 16:32:49 16:34:07 11° 14° (NNE) 16:35:24 435.675
SO-50 01 May 16:47:15 16:51:57 54° 231° (SW) 16:56:29 436.795
NOAA 18 01 May 16:49:57 16:54:03 22° 49° (NE) 16:58:09 137.9125
CUTE-I 01 May 16:50:10 16:53:28 17° 47° (NE) 16:56:47 437.470
O/OREOS (USA 219) 01 May 16:50:42 16:55:18 80° 120° (ESE) 16:59:55 437.305
AUBIESAT-1 01 May 16:52:30 16:53:39 11° 37° (NE) 16:54:47 437.475
MOZHAYETS 4 01 May 16:55:16 16:59:04 25° 92° (E) 17:02:50
GOMX 1 01 May 17:00:38 17:02:14 11° 41° (NE) 17:03:50 467.674
KKS-1 01 May 17:02:24 17:06:37 38° 97° (E) 17:10:48 437.445
AO-85 01 May 17:04:14 17:09:19 39° 338° (NNW) 17:14:10 145.980
ITUPSAT 1 01 May 17:05:38 17:10:12 46° 295° (WNW) 17:14:45 437.325
ITAMSAT 1 01 May 17:12:25 17:15:18 15° 275° (W) 17:18:13 435.822/435.867
SWISSCUBE 01 May 17:16:00 17:20:20 36° 299° (WNW) 17:24:41 437.505
BRITE-PL 01 May 17:16:49 17:20:30 21° 51° (NE) 17:24:23 437.365/2234.400
STARS 01 May 17:23:00 17:27:03 34° 96° (E) 17:31:03 437.465
CUSAT 1 01 May 17:32:17 17:35:59 41° 296° (WNW) 17:40:50 437.405
Cubesat XI-IV 01 May 17:32:25 17:36:56 29° 56° (NE) 17:41:29 437.490
HORYU 2 01 May 17:34:48 17:39:15 60° 258° (WSW) 17:43:42 437.375
NOAA 15 01 May 17:35:02 17:39:55 40° 61° (ENE) 17:44:51 137.62
PCSat 01 May 17:42:56 17:48:18 65° 126° (SE) 17:53:42 145.827
BEESAT 01 May 17:49:47 17:53:32 23° 305° (NW) 17:57:16 436.000
Cosmos 2491 01 May 17:54:42 18:03:16 50° 65° (ENE) 18:11:44 435.465 / 435.565
DANDE 01 May 18:03:00 18:06:02 39° 295° (WNW) 18:09:53 436.750
M-CUBED/EXP-1 PRIME 01 May 18:03:06 18:07:17 33° 55° (NE) 18:11:22 437.505
AO-7 01 May 18:08:19 18:14:46 24° 273° (W) 18:21:17 29.400- 29.500
HO-68 01 May 18:14:12 18:19:21 22° 39° (NE) 18:24:30 435.675
LilacSat-2 01 May 18:17:35 18:21:14 40° 67° (ENE) 18:24:54 437.200
YUBILEINY 01 May 18:19:14 18:25:20 22° 72° (ENE) 18:31:24 435.215
AUBIESAT-1 01 May 18:22:51 18:27:08 38° 57° (ENE) 18:31:19 437.475
CUTE-I 01 May 18:27:24 18:32:39 65° 68° (ENE) 18:37:56 437.470
NOAA 18 01 May 18:28:32 18:34:04 84° 70° (ENE) 18:39:36 137.9125
SO-50 01 May 18:29:59 18:31:25 11° 252° (WSW) 18:32:49 436.795
O/OREOS (USA 219) 01 May 18:31:26 18:35:14 25° 321° (NW) 18:39:04 437.305
MOZHAYETS 4 01 May 18:32:05 18:36:34 55° 291° (WNW) 18:41:02
GOMX 1 01 May 18:34:09 18:38:56 40° 63° (ENE) 18:43:58 467.674
CUBESAT XI-V 01 May 18:36:21 18:40:32 31° 94° (E) 18:44:42 437.345
DOVE 4 01 May 18:37:39 18:41:58 27° 57° (ENE) 18:46:23 437.250
KKS-1 01 May 18:39:05 18:43:12 36° 297° (WNW) 18:47:18 437.445
ITUPSAT 1 01 May 18:45:29 18:47:00 11° 316° (NW) 18:48:30 437.325
AO-85 01 May 18:46:25 18:51:01 29° 1° (N) 18:55:22 145.980
CUTE 1.7 + AOD 2 01 May 18:50:44 18:52:09 12° 50° (NE) 18:53:35 437.475
BRITE-PL 01 May 18:53:17 18:58:15 86° 69° (ENE) 19:03:39 437.365/2234.400
STARS 01 May 18:59:21 19:03:30 39° 296° (WNW) 19:07:36 437.465
Cubesat XI-IV 01 May 19:11:24 19:16:43 65° 257° (WSW) 19:22:03 437.490
NOAA 15 01 May 19:14:40 19:19:42 44° 262° (W) 19:24:47 137.62
SEEDS 01 May 19:19:16 19:21:37 15° 53° (NE) 19:24:00 437.485
CUSAT 1 01 May 19:19:35 19:20:04 10° 325° (NW) 19:20:33 437.405
STRAND 1 01 May 19:23:39 19:25:25 12° 82° (E) 19:27:11 437.568
COMPASS 1 01 May 19:25:31 19:27:29 13° 52° (NE) 19:29:27 437.405
PCSat 01 May 19:26:53 19:32:02 41° 328° (NNW) 19:37:12 145.827
CINEMA 3 01 May 19:30:45 19:34:58 28° 59° (ENE) 19:39:10 145.822/145.860
M-CUBED/EXP-1 PRIME 01 May 19:37:03 19:41:41 52° 253° (WSW) 19:46:13 437.505
BEESAT 3 01 May 19:46:08 19:49:14 22° 119° (ESE) 19:52:21 437.485
CANX-2 01 May 19:50:25 19:54:13 34° 64° (ENE) 19:58:02 2200.000
BEESAT 2 01 May 19:51:33 19:54:09 17° 116° (ESE) 19:56:47 435.950
Cosmos 2491 01 May 19:51:49 20:00:21 55° 270° (W) 20:08:48 435.465 / 435.565
LilacSat-2 01 May 19:52:24 19:55:42 26° 267° (W) 19:59:01 437.200
AAUSAT CUBESAT 2 01 May 19:56:27 19:59:22 19° 57° (ENE) 20:02:18 437.432
AUBIESAT-1 01 May 19:57:12 20:01:36 41° 256° (WSW) 20:05:55 437.475
HO-68 01 May 19:58:52 20:05:54 62° 62° (ENE) 20:12:57 435.675
Oscar 11 01 May 20:06:14 20:08:23 14° 51° (NE) 20:10:32 145.826/435.025
CUTE-I 01 May 20:08:42 20:13:09 26° 268° (W) 20:17:38 437.470
MOZHAYETS 4 01 May 20:10:58 20:12:51 12° 312° (NW) 20:14:44
NOAA 18 01 May 20:11:20 20:15:25 21° 271° (W) 20:19:33 137.9125
YUBILEINY 01 May 20:11:59 20:20:40 74° 96° (E) 20:29:22 435.215
GOMX 1 01 May 20:12:06 20:16:59 44° 264° (W) 20:22:11 467.674
CUBESAT XI-V 01 May 20:13:36 20:18:06 47° 293° (WNW) 20:22:36 437.345
DOVE 4 01 May 20:14:05 20:19:15 70° 257° (WSW) 20:24:36 437.250
O/OREOS (USA 219) 01 May 20:14:54 20:16:20 11° 346° (NNW) 20:17:45 437.305
FUNcube-1 01 May 20:15:41 20:18:08 15° 52° (NE) 20:20:33 145.935
UWE-3 01 May 20:22:23 20:25:55 22° 57° (ENE) 20:29:24 435.000/436.395/437.385
CUTE 1.7 + AOD 2 01 May 20:23:03 20:27:11 57° 70° (ENE) 20:31:20 437.475
CUBEBUG 2 01 May 20:26:31 20:30:37 30° 61° (ENE) 20:34:39 437.445
AO-85 01 May 20:27:44 20:32:40 42° 25° (NNE) 20:37:12 145.980
BRITE-PL 01 May 20:33:59 20:37:32 19° 276° (W) 20:41:15 437.365/2234.400
Cosmos 2504 01 May 20:40:10 20:46:25 33° 83° (E) 20:52:38 435.465 / 435.565
SEEDS 01 May 20:52:33 20:56:43 81° 76° (ENE) 21:00:56 437.485
Cubesat XI-IV 01 May 20:55:28 20:57:52 13° 278° (W) 21:00:17 437.490
ZACube-1 01 May 20:55:28 20:59:20 28° 61° (ENE) 21:03:07 437.345
COMPASS 1 01 May 20:58:15 21:02:22 71° 71° (ENE) 21:06:30 437.405
STRAND 1 01 May 21:00:36 21:05:41 61° 102° (ESE) 21:10:45 437.568
CINEMA 3 01 May 21:06:48 21:11:48 63° 259° (WSW) 21:16:47 145.822/145.860
PCSat 01 May 21:12:21 21:16:46 24° 353° (N) 21:21:12 145.827
AIST 2 01 May 21:14:56 21:16:00 11° 111° (ESE) 21:17:04 435.215
DELFI C3 01 May 21:19:32 21:22:48 25° 61° (ENE) 21:26:05 145.870
BEESAT 3 01 May 21:22:38 21:26:36 72° 320° (NW) 21:30:35 437.485
CANX-2 01 May 21:26:11 21:30:05 36° 264° (W) 21:34:01 2200.000
BEESAT 2 01 May 21:27:29 21:31:29 89° 139° (SE) 21:35:32 435.950
AAUSAT CUBESAT 2 01 May 21:30:21 21:34:27 72° 257° (WSW) 21:38:36 437.432
Oscar 11 01 May 21:39:30 21:43:47 69° 71° (ENE) 21:48:06 145.826/435.025
HO-68 01 May 21:47:24 21:54:01 39° 265° (W) 22:00:40 435.675
FUNcube-1 01 May 21:49:12 21:53:42 71° 72° (ENE) 21:58:07 145.935
Cosmos 2491 01 May 21:50:35 21:55:07 15° 295° (WNW) 21:59:38 435.465 / 435.565
CUBESAT XI-V 01 May 21:53:09 21:54:28 11° 315° (NW) 21:55:48 437.345
DOVE 4 01 May 21:55:10 21:57:57 14° 279° (W) 22:00:45 437.250
O/OREOS (USA 219) 01 May 21:56:41 21:57:55 11° 12° (NNE) 21:59:09 437.305
UWE-3 01 May 21:57:22 22:02:00 72° 257° (WSW) 22:06:34 435.000/436.395/437.385
ESTCUBE 1 01 May 21:58:35 22:00:26 12° 48° (NE) 22:02:18 437.505/2401.250
CUTE 1.7 + AOD 2 01 May 22:00:08 22:03:23 21° 269° (W) 22:06:40 437.475
CUBEBUG 2 01 May 22:02:28 22:07:05 50° 261° (W) 22:11:38 437.445
AO-85 01 May 22:08:28 22:13:29 65° 229° (SW) 22:18:01 145.980
HUMSAT D 01 May 22:08:59 22:12:52 37° 66° (ENE) 22:16:45 437.325/437.525
PRISM 01 May 22:09:25 22:13:35 66° 103° (ESE) 22:17:45 437.425
YUBILEINY 01 May 22:10:22 22:18:19 37° 301° (WNW) 22:26:17 435.215
CUBEBUG 1 01 May 22:24:18 22:26:41 14° 50° (NE) 22:29:04 437.445
RS-15 01 May 22:30:28 22:40:44 41° 111° (ESE) 22:51:29 29.354- 29.394
SEEDS 01 May 22:30:33 22:33:01 15° 273° (W) 22:35:30 437.485
ZACube-1 01 May 22:31:03 22:35:27 50° 260° (W) 22:39:48 437.345
Cosmos 2504 01 May 22:32:12 22:39:22 65° 287° (WNW) 22:46:33 435.465 / 435.565
COMPASS 1 01 May 22:35:39 22:38:25 17° 272° (W) 22:41:12 437.405
STRAND 1 01 May 22:40:15 22:44:36 29° 303° (WNW) 22:48:57 437.568
VELOX 1 01 May 22:47:18 22:50:39 21° 56° (NE) 22:54:02 145.980
CINEMA 3 01 May 22:47:57 22:49:55 12° 279° (W) 22:51:53 145.822/145.860
DX 1 01 May 22:48:21 22:51:34 20° 55° (NE) 22:54:48 434.975-435.025
AIST 2 01 May 22:49:35 22:53:39 58° 131° (SE) 22:57:45 435.215
DELFI C3 01 May 22:53:44 22:57:31 45° 261° (W) 23:01:21 145.870
UKube-1 01 May 22:56:59 23:00:09 20° 55° (NE) 23:03:21 .
PCSat 01 May 22:57:03 23:01:47 29° 19° (NNE) 23:06:30 145.827
50 SAT 01 May 22:57:54 23:00:45 22° 60° (ENE) 23:03:36 437.505
ANTELSAT 01 May 22:58:29 23:01:10 16° 86° (E) 23:03:48 437.575/2403.000
BEESAT 3 01 May 23:01:32 23:04:54 26° 342° (NNW) 23:08:16 437.485
BEESAT 2 01 May 23:06:16 23:09:48 29° 338° (NNW) 23:13:21 435.950
AAUSAT CUBESAT 2 01 May 23:09:51 23:10:45 11° 277° (W) 23:11:40 437.432
Oscar 11 01 May 23:17:19 23:20:24 19° 271° (W) 23:23:29 145.826/435.025
AISAT 01 May 23:18:16 23:22:21 36° 63° (ENE) 23:26:29 437.250
FUNcube-1 01 May 23:27:11 23:30:25 19° 271° (W) 23:33:37 145.935
SPROUT 01 May 23:28:53 23:32:06 21° 57° (ENE) 23:35:21 437.525
ESTCUBE 1 01 May 23:31:59 23:36:22 56° 68° (ENE) 23:40:48 437.505/2401.250
O/OREOS (USA 219) 01 May 23:35:21 23:39:03 23° 37° (NE) 23:42:43 437.305
UWE-3 01 May 23:37:23 23:39:17 12° 277° (W) 23:41:10 435.000/436.395/437.385
HUMSAT D 01 May 23:44:47 23:48:35 32° 265° (W) 23:52:22 437.325/437.525
PRISM 01 May 23:45:25 23:48:34 21° 303° (WNW) 23:51:42 437.425
AO-85 01 May 23:50:31 23:52:59 14° 251° (WSW) 23:55:20 145.980
UNISAT 6 01 May 23:51:51 23:56:05 43° 98° (E) 00:00:11 437.425
NANOSAT C BR1 01 May 23:52:03 23:53:34 12° 84° (E) 23:55:05 145.865
CUBEBUG 1 01 May 23:57:52 00:02:14 70° 71° (ENE) 00:06:39 437.445
GONETS M04 02 May 00:02:55 00:09:22 23° 73° (ENE) 00:15:47
TISAT 1 02 May 00:07:24 00:10:17 18° 55° (NE) 00:13:11 437.305
TIGRISAT 02 May 00:09:44 00:14:06 59° 101° (ESE) 00:18:20 435.000
YUBILEINY 02 May 00:14:11 00:18:30 14° 332° (NNW) 00:22:50 435.215
VELOX 1 02 May 00:22:16 00:26:43 72° 256° (WSW) 00:31:13 145.980
DX 1 02 May 00:22:57 00:27:20 76° 256° (WSW) 00:31:45 434.975-435.025
AIST 2 02 May 00:28:28 00:32:22 37° 332° (NNW) 00:36:16 435.215
Cosmos 2504 02 May 00:29:28 00:34:25 19° 313° (NW) 00:39:25 435.465 / 435.565
50 SAT 02 May 00:30:48 00:34:20 47° 260° (W) 00:37:54 437.505
UKube-1 02 May 00:31:27 00:35:47 75° 255° (WSW) 00:40:09 .
CUSAT 1 02 May 00:32:24 00:36:39 18° 48° (NE) 00:41:22 437.405
ANTELSAT 02 May 00:34:06 00:38:32 83° 287° (WNW) 00:42:50 437.575/2403.000
JAS-2 02 May 00:34:16 00:37:17 12° 74° (ENE) 00:40:20 435.910
RS-15 02 May 00:40:36 00:52:12 86° 319° (NW) 01:04:27 29.354- 29.394
BEESAT 3 02 May 00:40:38 00:43:43 21° 6° (N) 00:46:48 437.485
PCSat 02 May 00:40:39 00:46:06 68° 43° (NE) 00:51:31 145.827
QB50P2 02 May 00:42:10 00:46:04 33° 96° (E) 00:49:56 145.880/145.840
DUCHIFAT 1 02 May 00:43:22 00:47:09 30° 95° (E) 00:50:54 145.980
POLYITAN 1 02 May 00:44:19 00:48:13 34° 96° (E) 00:52:05 437.675
BEESAT 2 02 May 00:45:38 00:48:44 21° 2° (N) 00:51:50 435.950
POPSAT HIP 1 02 May 00:47:11 00:51:08 35° 96° (E) 00:55:01 437.405
QB50P1 02 May 00:50:30 00:54:30 38° 97° (E) 00:58:27 145.935-145.965
Cosmos 2499 02 May 00:51:21 00:56:07 20° 75° (ENE) 01:00:57 435.465 / 435.565
AISAT 02 May 00:54:43 00:58:52 37° 263° (W) 01:03:03 437.250
SPROUT 02 May 01:03:21 01:07:40 71° 257° (WSW) 01:12:01 437.525
ITUPSAT 1 02 May 01:05:55 01:09:06 18° 51° (NE) 01:12:18 437.325
DANDE 02 May 01:06:02 01:09:01 14° 49° (NE) 01:12:21 436.750
ESTCUBE 1 02 May 01:09:52 01:13:31 24° 268° (W) 01:17:12 437.505/2401.250
O/OREOS (USA 219) 02 May 01:14:29 01:19:04 86° 239° (WSW) 01:23:35 437.305
SWISSCUBE 02 May 01:15:19 01:18:57 22° 55° (NE) 01:22:36 437.505
